Content
SEND FEEDBACK

Daily
Averages
Monthly
Summary
Canada

QUEBEC CITY AIRPORT, QUEBEC


Home > North America > Canada > Quebec
Elevation: 244 feet     Latitude: 46 48N     Longitude: 71 23W

WEATHER
 
SELECT A DAY
Number of Records: 191,965;   Date Range: 6/30/96 - 7/20/14
 
SHARE

PRINT THIS DATA

[ ← Previous Day ]
WEATHER ALMANAC - JANUARY 6, 2013
[ Next Day → ]
[ °C ]   °F
Weather ElementAverageHighLow
Temperature11.1 °F18 °F (4:00 pm) (1:00 am)
Dewpoint4.2 °F16 °F (4:00 pm)-9.4 °F (1:00 am)
Humidity78.6 %93 % (5:00 pm)61 % (1:00 am)
Wind Speed6.5 mph20.7 mph (9:00 pm)
Wind Gust24.2 mph (10:00 pm)
Weather ElementAverage
Visibility4.3 mi
Wind DirectionESE (105.3 °)

Weather ElementTotal
Precipitation---
Heating Degree Days56 (Base 65)
Averaged from 42 records on January 6, 2013
WEATHER CONDITIONS BREAKOUT
WIND DIRECTION BREAKOUT
WEATHER BY HOUR - JANUARY 6, 2013
[ °C ]   °F
Local TimeTemperatureDewpointHumidityBarometerVisibilityWind DirectionWind SpeedGust SpeedPrecipitationEventsConditions
1:00 AM0.0 °F-5.0 °F70 %30.18 inNorth2.3 mph
1:00 AM1.4 °F-9.4 °F61 %30.18 in15.0 miNNE (20°)6.9 mphMostly Cloudy
2:00 AM1.4 °F-7.6 °F66 %30.17 in15.0 miNE (40°)3.5 mphMostly Cloudy
3:00 AM1.4 °F-7.6 °F66 %30.16 in15.0 miNNE (20°)2.3 mphScattered Clouds
4:00 AM1.4 °F-7.6 °F66 %30.11 in15.0 miNorth (10°)5.8 mphMostly Cloudy
4:00 AM2.0 °F-4.0 °F66 %30.11 inNorth (350°)2.3 mph
5:00 AM3.2 °F-5.8 °F66 %30.09 in15.0 miNNE (20°)6.9 mphOvercast
6:00 AM5.0 °F-4.0 °F66 %30.07 in3.0 miNorth (10°)4.6 mphSnowLight Snow
6:15 AM5.0 °F0.0 °F1.0 miNE (40°)3.5 mphSnowLight Snow
6:50 AM0.0 °F0.0 °F2.0 miNNE (20°)5.8 mph
7:00 AM5.0 °F-0.4 °F78 %30.06 in1.5 miNNE (20°)3.5 mphSnowLight Snow
7:00 AM5.0 °F2.0 °F80 %30.06 inNNE (20°)2.3 mph
8:00 AM5.0 °F-0.4 °F78 %30.06 in1.5 miCalmSnowLight Snow
8:18 AM6.8 °F0.0 °F2.5 miNNE (20°)2.3 mphSnowLight Snow
9:00 AM8.6 °F1.4 °F73 %30.04 in1.5 miNE (40°)4.6 mphSnowLight Snow
10:00 AM10.4 °F5.0 °F79 %30.02 in1.5 miNE (50°)3.5 mphSnowLight Snow
10:00 AM11.0 °F8.0 °F80 %30.02 inENE (70°)2.3 mph
10:21 AM10.4 °F0.0 °F2.0 miNE (40°)3.5 mphSnowLight Snow
10:32 AM10.4 °F0.0 °F5.0 miNE (40°)2.3 mphSnowLight Snow
11:00 AM12.2 °F6.8 °F79 %30.00 in8.0 miCalmSnowLight Snow
11:31 AM12.2 °F0.0 °F1.5 miNorth (360°)3.5 mphSnowLight Snow
12:00 PM14.0 °F10.4 °F86 %29.95 in5.0 miNorth (10°)3.5 mphSnowLight Snow
12:44 PM15.8 °F0.0 °F2.0 miNNE (20°)4.6 mphSnowLight Snow
1:00 PM16.0 °F12.0 °F79 %29.93 inNE (50°)3.5 mph
1:00 PM15.8 °F12.2 °F86 %29.93 in1.5 miNNE (20°)4.6 mphSnowLight Snow
1:48 PM15.8 °F0.0 °F0.0 mi4.6 (2013°)0.00 inLight Snow80
2:00 PM15.8 °F12.2 °F86 %29.93 in1.0 miEast (80°)3.5 mphSnowLight Snow
3:00 PM17.6 °F14.0 °F86 %29.94 in1.0 miENE (60°)6.9 mphSnowLight Snow
4:00 PM18.0 °F16.0 °F89 %29.95 inEast (80°)5.8 mph
4:00 PM17.6 °F14.0 °F86 %29.96 in1.0 miENE (70°)6.9 mphSnowLight Snow
5:00 PM17.6 °F15.8 °F93 %29.97 in1.2 miENE (60°)12.7 mphSnowLight Snow
5:30 PM17.6 °F0.0 °F1.5 miENE (60°)10.4 mphSnowLight Snow
5:50 PM17.6 °F0.0 °F1.0 miENE (60°)9.2 mphSnowLight Snow
6:00 PM17.6 °F15.8 °F93 %29.99 in1.0 miENE (60°)12.7 mphSnowLight Snow
6:37 PM17.6 °F0.0 °F2.0 miENE (70°)11.5 mph18.4 mphSnowLight Snow
7:00 PM18.0 °F15.0 °F84 %29.99 inEast (80°)10.4 mph
7:00 PM17.6 °F14.0 °F86 %30.00 in3.0 miENE (70°)15.0 mphSnowLight Snow
8:00 PM17.6 °F12.2 °F79 %30.02 in5.0 miENE (70°)18.4 mphSnowLight Snow
9:00 PM15.8 °F10.4 °F79 %30.04 in5.0 miENE (70°)20.7 mphSnowLight Snow
10:00 PM15.0 °F11.0 °F79 %30.05 inEast (80°)10.4 mph
10:00 PM14.0 °F10.4 °F86 %30.06 in5.0 miENE (70°)13.8 mph24.2 mphSnowLight Snow
11:00 PM14.0 °F10.4 °F86 %30.08 in3.0 miEast (80°)11.5 mph19.6 mphSnowLight Snow
Hourly data recorded from CYQB, located miles away from Quebec City Airport, Quebec







STORIES FROM OUR PARTNERS